map of ETNW home
Great Circle Mapper logo
ETNW - Airport
Location
City:  Wunstorf, Lower Saxony, Germany
ICAO:ETNW

Details
Type:Airport (Flugplatz, Airfield)
Use:Military
Latitude:5227'26"N (52.457333)
Longitude:925'38"E (9.427150)
Elevation:187 ft (57 m)
Variation:2.22E (WMM2015 magnetic declination)
0.14 annual change
Runways:3
Longest:6157 × 153 ft (1877 × 46.5 m), paved

Time
Time Zone:UTC+1 (DST+2)
Local Time:

Weather
METAR:ETNW 272320Z AUTO 26005KT 9000 // ////// 03/00 Q1019 ///
TAF:ETNW 271730Z 2718/2806 33008KT 9999 NSW SCT020 BKN180
BECMG 2722/2724 28004KT 5000 MIFG FEW015 PROB30 2800/2806 27003KT 0700 FG VV001 CANCEL BY ETGL

Related Locations
Nearby:
Farthest:CHT: 11775 mi / 18951 km
Waitangi [Tuuta], Chatham Islands, NZ

Find:

   beyond  
but within

Other Information
Maps:
NOTAMs:
Links:
Sources:

  
flag of Germany
flag of Lower Saxony
  

Sectional Chart

Flight Planning
at skyvector.com

Satellite Image

Google Maps Satellite View

 

Copyright © 2004-2015 Karl L. Swartz. All rights reserved.
The Great Circle Mapper name and logo are trademarks of the Great Circle Mapper.
All other trademarks mentioned herein belong to their respective owners.
Please see credits for attibutions and further copyright information.

  Follow gcmap on Facebook Follow gcmap on Twitter Follow gcmap on Google+

hCard Microformat

Geo Microformat